Regional Weather Roundup
Issued by NWS

Home | Current Version | Previous Version | Text Only | Print | Product List | Glossary On
Versions: 1 2 3 4 5 6 7 8 9 10 11 12 13 14 15 16 17 18 19 20 21 22 23 24 25 26 27 28 29 30 31 32 33 34 35 36 37 38 39 40 41 42 43 44 45 46 47 48 49 50
923
ASUS45 KTFX 140110
RWRMT
MONTANA REGIONAL WEATHER ROUNDUP
NATIONAL WEATHER SERVICE GREAT FALLS MT
600 PM MST SAT FEB 13 2016

NOTE: "FAIR" INDICATES FEW OR NO CLOUDS BELOW 12000 FEET WITH NO
SIGNIFICANT WEATHER AND/OR OBSTRUCTIONS TO VISIBILITY.

MTZ001>007-043-140200-
WEST OF THE DIVIDE

CITY           SKY/WX    TMP DP  RH WIND       PRES   REMARKS
KALISPELL      CLOUDY    37  29  72 SW3       30.10F
MISSOULA       CLOUDY    39  27  62 NW7       30.16F
BUTTE          PTCLDY    34  17  50 W9        30.12R WCI  27
MULLAN PASS    CLOUDY    25  23  92 SW12G21   30.07F WCI  14
ANACONDA         N/A     36  18  48 W8G17     30.12S WCI  29
DEER LODGE       N/A     36  25  64 CALM      30.13R
HAMILTON         N/A     43  21  42 S7        30.16F
$$

MTZ008-052>055-140200-
SOUTHWEST MONTANA

CITY           SKY/WX    TMP DP  RH WIND       PRES   REMARKS
BOZEMAN        CLEAR     38  22  52 SW3       30.10R
DILLON         CLEAR     36  18  48 SW20      30.13R WCI  25
ENNIS          MOCLDY    32  18  55 S8        30.18S WCI  25
TWIN BRIDGES     N/A     38  15  39 NW7       30.11R
$$

MTZ009-010-012-014-046-048-049-054-140200-
EAST SLOPES AND CENTRAL MONTANA

CITY           SKY/WX    TMP DP  RH WIND       PRES   REMARKS
CUT BANK       MOCLDY    36  24  62 W20G29    29.97R WCI  25
GREAT FALLS    CLEAR     37  20  50 SW12      29.99R WCI  29
MALMSTROM AFB  CLEAR     42  19  40 SW13      30.00R
HELENA         CLOUDY    42  20  41 SW8       30.09R
CHOTEAU          N/A     41  16  36 W8G15     30.00R
CONRAD           N/A     39  24  55 W9        30.01R
$$

MTZ011-013-016-021-045-047-050-051-140200-
NORTH CENTRAL MONTANA

CITY           SKY/WX    TMP DP  RH WIND       PRES   REMARKS
HAVRE          CLEAR     38  27  64 CALM      29.92S
LEWISTOWN      CLOUDY    39  26  59 NW12      29.96S WCI  32
N BAR RANCH      N/A     36  25  64 NW15G26   29.96R WCI  26
CHINOOK          N/A     37  28  70 W5        29.92S
$$

MTZ017>020-022>027-061-062-140200-
NORTHEAST MONTANA

CITY           SKY/WX    TMP DP  RH WIND       PRES   REMARKS
GLASGOW        CLOUDY    39  31  72 NW23G32   29.83R WCI  28
JORDAN           N/A     38  32  79 W13       29.87R WCI  30
SIDNEY         CLOUDY    34  30  86 W8        29.78F WCI  27
WOLF POINT     CLOUDY    37  31  78 W16       29.81R WCI  28
PLENTYWOOD       N/A     25  23  93 SE5       29.77R
POPLAR           N/A     32  28  86 W10       29.80S WCI  24
$$

MTZ028>42-056>058-140200-
SOUTHCENTRAL AND SOUTHEAST MONTANA

CITY           SKY/WX    TMP DP  RH WIND       PRES   REMARKS
BAKER          CLOUDY    37  34  89 W14       29.82S WCI  28
BILLINGS       PTCLDY    44  16  32 W22G32    29.99R
LIVINGSTON     CLEAR     37  19  48 W17G23    30.04F WCI  27
MILES CITY     CLOUDY    44  34  67 NW21G29   29.87R
FORSYTH          N/A     43  30  61 W18G28    29.91R
ROUNDUP          N/A     41  24  51 SW2       29.90R
$$

REGIONAL REPORTS...DAKOTAS

CITY           SKY/WX    TMP DP  RH WIND       PRES   REMARKS
WILLISTON      CLOUDY    23  19  85 CALM      29.78S
MINOT          SNOW      17  10  74 SE12      29.87F VSB 1/2 WCI   4
DICKINSON      CLOUDY    23  21  92 S10       29.77F WCI  12
BEACH          MOCLDY    36  36 100 W17       29.81S WCI  25
CROSBY         FLURRIES  18  18 100 S5        29.81F
TIOGA          LGT SNOW  16  16 100 SE8       29.83S WCI   5
WATFORD CITY   CLOUDY    27  25  93 CALM      29.78F
BISMARCK       LGT SNOW  18  11  74 SE13      29.94R WCI   5
GRAND FORKS    CLOUDY    13   1  59 SE21      30.18F WCI  -5
FARGO          CLOUDY    14   2  58 SE17G28   30.19F WCI  -3
BUFFALO SD       N/A     35  33  92 W14       29.76S WCI  26
RAPID CITY     LGT RAIN  34  32  92 N29G37    29.85R FOG     WCI  20
$$

REGIONAL REPORTS...WYOMING/IDAHO/WASHINGTON

CITY           SKY/WX    TMP DP  RH WIND       PRES   REMARKS
GILLETTE       CLOUDY    33  30  88 W12       29.94R WCI  24
SHERIDAN       PTCLDY    39  23  52 NW12      29.94S WCI  32
BUFFALO WY     CLEAR     37  22  54 NW17G24   29.97R WCI  27
CODY           CLEAR     41  10  28 W17G26    30.01S
YELLOWSTONE LA   N/A     25  10  53 W9        30.13R WCI  15
IDAHO FALLS    PTCLDY    35  29  78 S13       30.23F WCI  26
SALMON         PTCLDY    36  23  60 SE3       30.17F
BOISE          CLOUDY    47  26  44 N3        30.25F
SPOKANE        CLOUDY    42  35  76 SW13      30.16S
$$

REGIONAL REPORTS...ALBERTA

CITY           SKY/WX    TMP DP  RH WIND       PRES   REMARKS
EDMONTON       PTCLDY    32  25  74 SW5       29.74F
CALGARY        MOCLDY    43  16  33 W7        29.80F
LETHBRIDGE     MOCLDY    43  21  42 W25G33    29.89S
MEDICINE HAT   PTCLDY    36  30  80 SW7       29.89S WCI  30
WATERTON GATE    N/A     34  27  75 SW12G17     N/A  WCI  25
CARDSTON         N/A     39  21  48 W12G18      N/A  WCI  32
MILK RIVER       N/A     39  25  56 W18         N/A  WCI  30
ONEFOUR          N/A     34  28  80 NW7         N/A  WCI  28
$$

REGIONAL REPORTS...SASKATCHEWAN

CITY           SKY/WX    TMP DP  RH WIND       PRES   REMARKS
SWIFT CURRENT  CLOUDY    27  27 100 W15G22    29.81R WCI  15
REGINA         CLOUDY    21  16  79 SE13      29.76R WCI   9
SASKATOON      CLOUDY    19  16  86 W9        29.82R WCI   9
CYPRESS HILLS    N/A     30  28  93 NW9         N/A  WCI  22
VAL MARIE        N/A     34  30  86 NW18G24     N/A  WCI  23
ROCKGLEN         N/A     25  23  93 NW15G22     N/A  WCI  12
ASSINIBOIA       N/A     28  25  86 SW5         N/A
$$




USA.gov is the U.S. government's official web portal to all federal, state and local government web resources and services.